Погода в Уках

Россия / Тюменская область     58°51′46″N   68°49′05″E
темп.,
°C
ветер,
м/с
пор.,
м/с
влажн.,
%
обл.,
%
осадки,
мм/ч
давл.,
гПа
погр.,
м
12 мая, ср
ср1223:00+14зсз374988 0.0 1023122
02:00+13ссз497566 0.0 1023392
05:00+10ссз3979100 0.0 1024487
08:00+11ссз586199 0.0 1025757
11:00+14ссз5736100 0.0 10251143
14:00+17ссз572599 0.0 10251610
17:00+17ссз4732100 0.0 10251635
20:00+14зсз2649100 0.0 1024199
13 мая, чт
чт1323:00+11з1266100 0.0 102311
02:00+12ююз117390 0.3 102232
05:00+11зюз3978100 0.4 1021274
08:00+16сз31169100 0.0 1020575
11:00+19сз5105770 0.1 10201275
14:00+20с61050100 0.1 10211610
17:00+20с6927100 0.1 10231633
20:00+15ссв26495 0.0 1025117
14 мая, пт
пт1423:00+10в236215 0.0 102659
02:00+8ююв23680 0.0 102752
05:00+8ю27685 0.0 1027141
08:00+16ююз47478 0.0 1026445
11:00+22юз583511 0.0 1023980
14:00+27зюз6103349 0.0 10202814
17:00+27з593287 0.0 10193040
20:00+17всв2587100 0.8 1020144
15 мая, сб
сб1523:00+16ююз37815 0.9 1018103
02:00+15зюз3107597 0.7 1016175
05:00+14зюз39815 0.9 1017151
08:00+21з510546 0.0 1016510
11:00+26зсз61036100 0.0 10162128
14:00+27зсз61031100 0.0 10162731
17:00+28зсз5112966 0.0 10153740
20:00+22с115073 0.0 101511
16 мая, вс
вс1623:00+17зсз22715 0.1 101630
02:00+15юз367962 0.0 1015104
05:00+15зюз3983100 0.3 1016228
08:00+21з365815 0.0 1015422
11:00+27зюз583892 0.0 10141541
14:00+30з71124100 0.0 10132425
17:00+30з5112383 0.0 10122534
20:00+23зюз37395 0.0 1012130